Weather History for KPEX - June, 2014

Change the Weather History Date:

Sunday, June 22, 2014

  Actual Average (KLJF) Record (KLJF)
Temperature  
Mean Temperature 68 °F -  
Max Temperature 74 °F 80 °F 93 °F (1988)
Min Temperature 61 °F 58 °F 43 °F (1960)
Cooling Degree Days 2    
Growing Degree Days 18 (Base 50)    
Moisture  
Dew Point 62 °F    
Average Humidity 84    
Maximum Humidity 100    
Minimum Humidity 71    
Precipitation  
Precipitation 0.01 in - - ()
Sea Level Pressure  
Sea Level Pressure 29.85 in    
Wind  
Wind Speed 3 mph (ESE)    
Max Wind Speed 9 mph    
Max Gust Speed 20 mph    
Visibility 10 miles    
Events Rain , Thunderstorm    
Averages and records for this station are not official NWS values.
T = Trace of Precipitation, MM = Missing Value Source: NWS Daily Summary

Daily Weather History Graph

Daily Weather History Graph

Search for Another Location

Airport or City:

Trip Planner

Search our weather history database for the weather conditions in past years. The results will help you decide how hot, cold, wet, or windy it might be!

Date:

Astronomy

Jun. 22, 2014 Rise Set
Actual Time 5:30 AM CDT 9:11 PM CDT
Civil Twilight 4:53 AM CDT 9:48 PM CDT
Nautical Twilight 4:02 AM CDT 10:39 PM CDT
Astronomical Twilight 2:54 AM CDT 11:47 PM CDT
Moon 2:30 AM CDT (6/22) 4:43 PM CDT (6/22)
Length of Visible Light 16h 55m
Length of Day
15h 40m
Waning Crescent, 20% of the Moon is Illuminated
Jun 22
Waning Crescent
Jun 27
New
Jul 5
First Quarter
Jul 12
Full
Jul 18
Last Quarter

Hourly Weather History & Observations

Time (CDT) Temp. Dew Point Humidity Pressure Visibility Wind Dir Wind Speed Gust Speed Precip Events Conditions
12:12 AM 64.6 °F 62.4 °F 93% 29.94 in 10.0 mi SW 4.6 mph - N/A   Clear
12:32 AM 64.6 °F 61.0 °F 88% 29.94 in 10.0 mi SW 4.6 mph - N/A   Clear
12:52 AM 64.8 °F 60.3 °F 85% 29.93 in 10.0 mi SSW 6.9 mph - N/A   Clear
1:12 AM 64.8 °F 59.4 °F 83% 29.91 in 10.0 mi South 5.8 mph - N/A   Clear
1:32 AM 65.1 °F 59.9 °F 83% 29.90 in 10.0 mi South 5.8 mph - N/A   Clear
1:52 AM 65.5 °F 59.4 °F 81% 29.89 in 10.0 mi South 6.9 mph - N/A   Clear
2:12 AM 65.5 °F 59.2 °F 80% 29.88 in 10.0 mi South 6.9 mph - N/A   Clear
2:32 AM 65.7 °F 59.9 °F 82% 29.87 in 10.0 mi SSW 8.1 mph - N/A   Clear
2:52 AM 65.3 °F 59.2 °F 81% 29.86 in 10.0 mi South 6.9 mph - N/A   Scattered Clouds
3:12 AM 65.3 °F 58.3 °F 78% 29.84 in 10.0 mi SSE 5.8 mph - N/A Rain Light Rain
3:32 AM 65.5 °F 57.6 °F 76% 29.85 in 10.0 mi SSE 6.9 mph - N/A Rain Light Rain
3:52 AM 65.3 °F 58.1 °F 77% 29.84 in 10.0 mi South 9.2 mph 19.6 mph N/A   Scattered Clouds
4:12 AM 64.6 °F 58.1 °F 79% 29.83 in 10.0 mi SSW 8.1 mph - N/A Rain Light Rain
4:32 AM 63.1 °F 59.0 °F 86% 29.82 in 10.0 mi Calm Calm - N/A Rain Light Rain
4:52 AM 63.1 °F 59.7 °F 89% 29.82 in 10.0 mi North 3.5 mph - N/A Rain Light Rain
5:12 AM 62.1 °F 59.4 °F 91% 29.83 in 10.0 mi Calm Calm - N/A   Overcast
5:32 AM 62.6 °F 59.5 °F 90% 29.84 in 10.0 mi Calm Calm - N/A Rain Light Rain
5:52 AM 61.9 °F 60.1 °F 94% 29.84 in 10.0 mi Calm Calm - N/A Rain Light Rain
6:12 AM 61.5 °F 60.4 °F 96% 29.84 in 10.0 mi North 3.5 mph - N/A Rain Light Rain
6:32 AM 61.7 °F 60.8 °F 97% 29.84 in 10.0 mi Calm Calm - N/A   Overcast
6:52 AM 62.1 °F 61.0 °F 96% 29.82 in 10.0 mi Calm Calm - N/A   Mostly Cloudy
7:12 AM 62.6 °F 61.2 °F 95% 29.84 in 10.0 mi Calm Calm - N/A   Overcast
7:32 AM 62.8 °F 61.7 °F 96% 29.85 in 10.0 mi Calm Calm - N/A   Overcast
7:52 AM 62.6 °F 61.7 °F 97% 29.87 in 10.0 mi Calm Calm - N/A Rain Light Rain
8:12 AM 62.8 °F 62.2 °F 98% 29.87 in 10.0 mi Calm Calm - N/A Rain Light Rain
8:32 AM 64.4 °F 62.6 °F 94% 29.87 in 10.0 mi Calm Calm - N/A   Mostly Cloudy
8:52 AM 65.5 °F 62.1 °F 89% 29.88 in 10.0 mi ENE 3.5 mph - N/A Thunderstorm Scattered Clouds
9:12 AM 65.3 °F 62.4 °F 90% 29.87 in 10.0 mi Calm Calm - N/A   Clear
9:32 AM 65.7 °F 62.1 °F 88% 29.88 in 10.0 mi ENE 5.8 mph - N/A   Clear
9:52 AM 66.2 °F 62.6 °F 88% 29.88 in 10.0 mi ENE 4.6 mph - N/A   Scattered Clouds
10:12 AM 66.4 °F 62.1 °F 86% 29.87 in 10.0 mi Calm Calm - N/A   Scattered Clouds
10:32 AM 66.4 °F 61.7 °F 85% 29.87 in 10.0 mi Calm Calm - N/A   Mostly Cloudy
10:52 AM 67.1 °F 62.4 °F 85% 29.87 in 10.0 mi Calm Calm - N/A   Scattered Clouds
11:12 AM 68.4 °F 62.8 °F 82% 29.87 in 10.0 mi Calm Calm - N/A   Clear
11:32 AM 68.7 °F 62.2 °F 80% 29.86 in 10.0 mi Calm Calm - N/A   Mostly Cloudy
11:52 AM 69.1 °F 62.4 °F 79% 29.85 in 10.0 mi Calm Calm - N/A   Scattered Clouds
12:12 PM 70.3 °F 62.4 °F 76% 29.84 in 10.0 mi Calm Calm - N/A   Clear
12:32 PM 70.7 °F 62.1 °F 74% 29.84 in 10.0 mi Calm Calm - N/A   Clear
12:52 PM 70.7 °F 62.1 °F 74% 29.84 in 10.0 mi Calm Calm - N/A   Clear
1:12 PM 72.1 °F 62.6 °F 72% 29.84 in 10.0 mi Calm Calm - N/A   Clear
1:32 PM 72.5 °F 63.1 °F 72% 29.85 in 10.0 mi East 4.6 mph - N/A   Scattered Clouds
1:52 PM 72.0 °F 63.5 °F 75% 29.85 in 10.0 mi Calm Calm - N/A   Overcast
2:12 PM 73.4 °F 63.5 °F 71% 29.84 in 10.0 mi Calm Calm - N/A   Scattered Clouds
2:31 PM 72.5 °F 63.7 °F 74% 29.84 in 10.0 mi WSW 3.5 mph - N/A   Mostly Cloudy
2:52 PM 72.9 °F 63.3 °F 72% 29.85 in 10.0 mi Calm Calm - N/A   Mostly Cloudy
3:12 PM 72.9 °F 64.2 °F 74% 29.85 in 10.0 mi Calm Calm - N/A   Scattered Clouds
3:32 PM 72.7 °F 64.0 °F 74% 29.84 in 10.0 mi Calm Calm - N/A   Mostly Cloudy
3:51 PM 72.5 °F 64.6 °F 76% 29.84 in 10.0 mi ENE 3.5 mph - N/A   Overcast
4:12 PM 72.7 °F 64.4 °F 75% 29.84 in 10.0 mi ENE 3.5 mph - N/A   Scattered Clouds
4:32 PM 72.9 °F 65.1 °F 77% 29.84 in 10.0 mi NE 4.6 mph - N/A   Clear
4:52 PM 74.3 °F 66.0 °F 75% 29.84 in 10.0 mi ENE 4.6 mph - N/A   Clear
5:12 PM 73.9 °F 65.8 °F 76% 29.83 in 10.0 mi ENE 3.5 mph - N/A   Clear
5:32 PM 74.1 °F 65.3 °F 74% 29.83 in 10.0 mi ENE 4.6 mph - N/A   Clear
5:52 PM 73.9 °F 65.3 °F 74% 29.83 in 10.0 mi NNE 4.6 mph - N/A   Clear
6:12 PM 73.4 °F 64.8 °F 74% 29.84 in 10.0 mi ENE 4.6 mph - N/A   Clear
6:32 PM 72.9 °F 65.1 °F 77% 29.84 in 10.0 mi East 4.6 mph - N/A   Clear
6:52 PM 73.4 °F 64.8 °F 74% 29.84 in 10.0 mi East 4.6 mph - N/A   Mostly Cloudy
7:12 PM 72.5 °F 64.9 °F 77% 29.84 in 10.0 mi ENE 4.6 mph - N/A   Mostly Cloudy
7:32 PM 72.0 °F 64.8 °F 78% 29.84 in 10.0 mi NE 3.5 mph - N/A Rain Light Rain
7:51 PM 70.9 °F 66.2 °F 85% 29.83 in 10.0 mi NE 3.5 mph - 0.01 in Rain Light Rain
8:12 PM 69.8 °F 65.8 °F 87% 29.83 in 10.0 mi Calm Calm - N/A   Overcast
8:31 PM 69.6 °F 66.9 °F 91% 29.83 in 10.0 mi Calm Calm - N/A   Mostly Cloudy
8:52 PM 69.8 °F 66.6 °F 89% 29.82 in 10.0 mi East 4.6 mph - N/A   Mostly Cloudy
9:12 PM 67.8 °F 66.0 °F 94% 29.82 in 10.0 mi Calm Calm - N/A   Overcast
9:32 PM 67.8 °F 65.3 °F 92% 29.82 in 10.0 mi East 3.5 mph - N/A   Scattered Clouds
9:52 PM 66.7 °F 64.4 °F 92% 29.83 in 10.0 mi Calm Calm - N/A   Clear
10:12 PM 65.1 °F 64.0 °F 96% 29.83 in 10.0 mi Calm Calm - N/A   Clear
10:32 PM 62.6 °F 62.4 °F 99% 29.83 in 10.0 mi SSW 3.5 mph - N/A   Clear
10:51 PM 62.4 °F 62.4 °F 100% 29.84 in 10.0 mi Calm Calm - N/A   Clear
11:11 PM 64.2 °F 63.1 °F 96% 29.85 in 10.0 mi Calm Calm - N/A   Clear
11:32 PM 62.8 °F 62.1 °F 97% 29.84 in 10.0 mi SSW 3.5 mph - N/A   Clear
11:52 PM 61.5 °F 60.8 °F 97% 29.84 in 10.0 mi Calm Calm - N/A   Clear